Jackson, MS

12:20 AM CDT on July 25, 2017 (GMT -0500)
Jackson-Evers International

Weather History for KJAN - August, 2012

Change the Weather History Date:

Sunday, August 12, 2012

  Actual Average Record
Temperature  
Mean Temperature 79 °F 82 °F  
Max Temperature 93 °F 92 °F 104 °F (1954)
Min Temperature 64 °F 71 °F 58 °F (1931)
Degree Days  
Heating Degree Days 0 0  
Month to date heating degree days 0 0  
Since 1 June heating degree days 0 0  
Since 1 July heating degree days 0 0  
Cooling Degree Days 14 17  
Month to date cooling degree days 225 204  
Year to date cooling degree days 1826 1499  
Since 1 June cooling degree days 1249 1141  
Growing Degree Days 28 (Base 50)    
Moisture  
Dew Point 66 °F    
Average Humidity 66    
Maximum Humidity 93    
Minimum Humidity 39    
Precipitation  
Precipitation 0.00 in 0.15 in 2.76 in (2008)
Month to date precipitation 0.66 1.85  
Year to date precipitation 44.42 34.89  
Sea Level Pressure  
Sea Level Pressure 29.99 in    
Wind  
Wind Speed 3 mph (SE)    
Max Wind Speed 12 mph    
Max Gust Speed 15 mph    
Visibility 10 miles    
Events      
T = Trace of Precipitation, MM = Missing Value Source: NWS Daily Summary

Daily Weather History Graph

Daily Weather History Graph

Search for Another Location

Airport or City:

Trip Planner

Search our weather history database for the weather conditions in past years. The results will help you decide how hot, cold, wet, or windy it might be!

Date:

Astronomy

Aug. 12, 2012 Rise Set
Actual Time 6:22 AM CDT 7:47 PM CDT
Civil Twilight 5:56 AM CDT 8:13 PM CDT
Nautical Twilight 5:25 AM CDT 8:44 PM CDT
Astronomical Twilight 4:53 AM CDT 9:16 PM CDT
Moon 1:42 AM CDT (8/12) 4:05 PM CDT (8/12)
Length of Visible Light 14h 16m
Length of Day
13h 24m
Waning Crescent, 24% of the Moon is Illuminated
Aug 12
Waning Crescent
Aug 17
New
Aug 24
First Quarter
Aug 31
Full
Sep 8
Last Quarter

Hourly Weather History & Observations

Time (CDT) Temp. Heat Index Dew Point Humidity Pressure Visibility Wind Dir Wind Speed Gust Speed Precip Events Conditions
12:54 AM 68.0 °F - 64.0 °F 87% 29.98 in 10.0 mi Calm Calm - N/A   Clear
1:54 AM 66.9 °F - 63.0 °F 87% 29.98 in 10.0 mi Calm Calm - N/A   Clear
2:54 AM 66.0 °F - 63.0 °F 90% 29.98 in 10.0 mi Calm Calm - N/A   Clear
3:54 AM 64.9 °F - 62.1 °F 90% 29.99 in 10.0 mi Calm Calm - N/A   Clear
4:54 AM 66.9 °F - 63.0 °F 87% 30.00 in 10.0 mi Calm Calm - N/A   Clear
5:54 AM 64.9 °F - 62.1 °F 90% 30.01 in 10.0 mi Calm Calm - N/A   Clear
6:54 AM 66.0 °F - 63.0 °F 90% 30.02 in 10.0 mi Calm Calm - N/A   Clear
7:54 AM 71.1 °F - 64.9 °F 81% 30.03 in 10.0 mi Calm Calm - N/A   Clear
8:54 AM 77.0 °F - 66.0 °F 69% 30.04 in 10.0 mi SSE 3.5 mph - N/A   Clear
9:54 AM 82.0 °F 83.8 °F 64.9 °F 56% 30.04 in 10.0 mi SSW 5.8 mph - N/A   Clear
10:54 AM 84.0 °F 86.5 °F 66.9 °F 56% 30.04 in 10.0 mi Calm Calm - N/A   Clear
11:54 AM 87.1 °F 89.2 °F 66.0 °F 49% 30.03 in 10.0 mi Calm Calm - N/A   Partly Cloudy
12:54 PM 89.1 °F 92.1 °F 66.9 °F 48% 30.00 in 10.0 mi WNW 3.5 mph - N/A   Partly Cloudy
1:54 PM 90.0 °F 92.8 °F 66.9 °F 46% 29.99 in 10.0 mi Variable 3.5 mph - N/A   Partly Cloudy
2:54 PM 91.0 °F 93.8 °F 66.0 °F 44% 29.97 in 10.0 mi Variable 3.5 mph - N/A   Scattered Clouds
3:54 PM 93.0 °F 95.0 °F 64.9 °F 39% 29.95 in 10.0 mi Calm Calm - N/A   Scattered Clouds
4:54 PM 91.0 °F 93.0 °F 64.9 °F 42% 29.94 in 10.0 mi SSW 4.6 mph - N/A   Scattered Clouds
5:54 PM 90.0 °F 92.8 °F 66.9 °F 46% 29.93 in 10.0 mi East 5.8 mph - N/A   Scattered Clouds
6:54 PM 87.1 °F 90.6 °F 68.0 °F 53% 29.94 in 10.0 mi ESE 5.8 mph - N/A   Mostly Cloudy
7:54 PM 82.9 °F 87.0 °F 70.0 °F 65% 29.95 in 10.0 mi ESE 3.5 mph - N/A   Scattered Clouds
8:54 PM 80.1 °F 83.2 °F 70.0 °F 71% 29.96 in 10.0 mi ESE 4.6 mph - N/A   Partly Cloudy
9:54 PM 81.0 °F 84.1 °F 69.1 °F 67% 29.97 in 10.0 mi ESE 8.1 mph - N/A   Clear
10:54 PM 80.1 °F 82.9 °F 69.1 °F 69% 29.99 in 10.0 mi SE 9.2 mph - N/A   Partly Cloudy
11:54 PM 78.1 °F - 69.1 °F 74% 30.00 in 10.0 mi SSE 9.2 mph - N/A   Partly Cloudy